FW1107 Weather Reports


time (UTC)temp
F
wind
direction
speed
knots
gust
knots
rain 1hr
in
rain 24hr
in
rain mn
in
humidity
%
barometer
mb
20260504033524 51 130 2.6 4.3 0.00 0.00 0.00 68 1023.5
20260504032520 51 134 2.6 5.2 0.00 0.00 0.00 50 1023.5
20260504031516 51 124 1.7 5.2 0.00 0.00 0.00 50 1023.5
20260504030533 53 162 2.6 4.3 0.00 0.00 0.00 60 1021.2
20260504030531 50 139 3.5 5.2 0.00 0.00 0.00 63 1023.5
20260504025529 53 142 3.5 4.3 0.00 0.00 0.00 60 1021.3
20260504025527 49 147 1.7 3.5 0.00 0.00 0.00 65 1023.7
20260504024546 53 155 2.6 4.3 0.00 0.00 0.00 61 1021.3
20260504024523 50 99 0.9 2.6 0.00 0.00 0.00 61 1023.7
20260504023522 53 143 3.5 5.2 0.00 0.00 0.00 60 1021.5
20260504023519 50 75 0.9 2.6 0.00 0.00 0.00 66 1023.7
20260504022534 50 73 1.7 2.6 0.00 0.00 0.00 60 1023.8
20260504022518 53 144 2.6 4.3 0.00 0.00 0.00 60 1021.5
20260504021610 50 81 1.7 2.6 0.00 0.00 0.00 63 1023.8
20260504021535 54 135 2.6 3.5 0.00 0.00 0.00 60 1021.5
20260504020531 54 122 1.7 3.5 0.00 0.00 0.00 61 1021.5
20260504020526 49 95 0.9 2.6 0.00 0.00 0.00 71 1023.9
20260504015702 48 103 0.9 1.7 0.00 0.00 0.00 80 1023.9
20260504015528 54 120 1.7 2.6 0.00 0.00 0.00 63 1021.6
20260504014524 55 90 0.9 1.7 0.00 0.00 0.00 64 1021.5
20260504014517 48 104 0.9 1.7 0.00 0.00 0.00 83 1024.0
20260504013533 49 100 0.0 0.9 0.00 0.00 0.00 81 1023.9
20260504013520 54 84 1.7 2.6 0.00 0.00 0.00 64 1021.5
20260504012529 49 78 0.9 1.7 0.00 0.00 0.00 85 1023.9
20260504012517 53 120 1.7 2.6 0.00 0.00 0.00 66 1021.6
20260504011533 54 132 2.6 3.5 0.00 0.00 0.00 66 1021.4
20260504011524 49 104 0.9 1.7 0.00 0.00 0.00 85 1023.8
20260504010530 54 116 1.7 2.6 0.00 0.00 0.00 66 1021.5
20260504010520 49 103 1.7 2.6 0.00 0.00 0.00 85 1023.8
20260504005526 53 129 2.6 3.5 0.00 0.00 0.00 65 1021.5
20260504005516 49 102 1.7 2.6 0.00 0.00 0.00 84 1023.9
20260504004532 49 89 0.9 3.5 0.00 0.00 0.00 84 1023.8
20260504004522 53 136 1.7 2.6 0.00 0.00 0.00 64 1021.6
20260504003527 49 80 0.9 1.7 0.00 0.00 0.00 83 1023.8
20260504003519 52 144 2.6 4.3 0.00 0.00 0.00 64 1021.5
20260504002543 50 80 0.0 1.7 0.00 0.00 0.00 84 1023.9
20260504002515 52 143 3.5 4.3 0.00 0.00 0.00 63 1021.8
20260504001532 52 130 2.6 3.5 0.00 0.00 0.00 59 1021.7
20260504001519 50 43 0.0 1.7 0.00 0.00 0.00 83 1024.0
20260504000535 50 50 0.0 1.7 0.00 0.00 0.00 82 1024.1
20260504000528 53 126 2.6 3.5 0.00 0.00 0.00 54 1021.8
20260503235645 52 129 2.6 3.5 0.00 0.00 0.00 55 1021.7
20260503235530 49 73 0.9 1.7 0.00 0.00 0.00 82 1024.0
20260503234527 49 45 0.9 1.7 0.00 0.00 0.00 81 1024.2
20260503234521 52 138 2.6 4.3 0.00 0.00 0.00 58 1022.0
20260503233523 49 70 0.9 1.7 0.00 0.00 0.00 82 1024.2
20260503233518 53 145 1.7 2.6 0.00 0.00 0.00 51 1022.0
20260503232534 53 175 0.9 2.6 0.00 0.00 0.00 48 1022.2
20260503232519 49 57 0.9 1.7 0.00 0.00 0.00 82 1024.4
20260503231554 50 46 0.9 1.7 0.00 0.00 0.00 81 1024.5
20260503231530 52 127 1.7 3.5 0.00 0.00 0.00 56 1022.2
20260503230530 49 219 0.0 1.7 0.00 0.00 0.00 79 1024.6
20260503230527 52 113 1.7 3.5 0.00 0.00 0.00 60 1022.3
20260503225606 49 236 0.0 1.7 0.00 0.00 0.00 80 1024.5
20260503225523 52 124 1.7 2.6 0.00 0.00 0.00 61 1022.4
20260503224521 49 71 0.9 1.7 0.00 0.00 0.00 81 1024.7
20260503223538 50 68 0.9 2.6 0.00 0.00 0.00 81 1024.6
20260503223516 53 168 0.0 1.7 0.00 0.00 0.00 60 1022.6
20260503222534 50 3 0.9 2.6 0.00 0.00 0.00 80 1024.6
20260503221609 52 75 0.9 2.6 0.00 0.00 0.00 71 1022.4
20260503221530 50 325 0.9 2.6 0.00 0.00 0.00 79 1024.7
20260503220546 50 223 0.9 1.7 0.00 0.00 0.00 80 1024.7
20260503220525 52 91 1.7 2.6 0.00 0.00 0.00 70 1022.4
20260503215541 49 92 0.9 1.7 0.00 0.00 0.00 82 1024.5
20260503215522 52 76 0.9 1.7 0.00 0.00 0.00 70 1022.3
20260503214539 52 83 0.9 1.7 0.00 0.00 0.00 69 1022.2
20260503214517 50 71 0.9 1.7 0.00 0.00 0.00 82 1024.4
20260503213614 50 276 0.0 1.7 0.00 0.00 0.00 81 1024.4
20260503213535 52 83 1.7 2.6 0.00 0.00 0.00 70 1022.3
20260503212531 52 80 0.9 1.7 0.00 0.00 0.00 74 1022.3
20260503212529 49 0.0 0.9 0.00 0.00 0.00 83 1024.3
20260503211528 53 72 0.9 2.6 0.00 0.00 0.00 72 1022.2
20260503211525 47 260 0.9 1.7 0.00 0.00 0.00 87 1024.3
20260503210604 54 66 0.0 1.7 0.00 0.00 0.00 70 1022.1
20260503210521 48 262 1.7 4.3 0.00 0.00 0.00 85 1024.3
20260503205521 54 70 1.7 3.5 0.00 0.00 0.00 70 1022.0
20260503205517 49 139 0.9 2.6 0.00 0.00 0.00 83 1024.4
20260503204534 49 357 0.0 1.7 0.00 0.00 0.00 82 1024.3
20260503204517 53 93 0.9 1.7 0.00 0.00 0.00 72 1022.1
20260503203549 50 329 0.9 3.5 0.00 0.00 0.00 82 1024.3
20260503203534 54 90 0.9 2.6 0.00 0.00 0.00 74 1022.0
20260503202610 54 78 1.7 2.6 0.00 0.00 0.00 75 1022.1
20260503202525 50 356 0.9 2.6 0.00 0.00 0.00 79 1024.3
20260503201526 53 79 1.7 2.6 0.00 0.00 0.00 76 1022.0
20260503201521 50 302 0.9 2.6 0.00 0.00 0.00 81 1024.4
20260503200523 54 84 0.9 1.7 0.00 0.00 0.00 75 1022.1
20260503200518 50 296 0.9 2.6 0.00 0.00 0.00 83 1024.3
20260503195553 50 322 0.9 2.6 0.00 0.00 0.00 83 1024.3
20260503195519 54 63 0.9 1.7 0.00 0.00 0.00 74 1022.0
20260503194550 50 234 0.9 4.3 0.00 0.00 0.00 82 1024.3
20260503194516 54 93 0.9 1.7 0.00 0.00 0.00 73 1022.0
20260503193525 50 0 0.9 3.5 0.00 0.00 0.00 82 1024.2
20260503192529 55 86 0.9 1.7 0.00 0.00 0.00 73 1021.9
20260503192521 50 176 0.9 2.6 0.00 0.00 0.00 83 1024.1
20260503191525 55 84 1.7 2.6 0.00 0.00 0.00 73 1021.8
20260503191517 49 125 1.7 3.5 0.00 0.00 0.00 87 1024.1
20260503190533 47 179 0.9 3.5 0.00 0.00 0.00 91 1024.0
20260503190521 55 124 1.7 3.5 0.00 0.00 0.00 75 1021.6
20260503185549 47 231 2.6 5.2 0.00 0.00 0.00 92 1023.9
20260503185518 54 159 1.7 3.5 0.00 0.00 0.00 78 1021.6
20260503184545 47 187 1.7 4.3 0.00 0.00 0.00 90 1023.9
20260503184534 53 166 2.6 5.2 0.00 0.00 0.00 79 1021.5
20260503183531 54 170 3.5 5.2 0.00 0.00 0.00 78 1021.3
20260503183521 48 228 2.6 7.0 0.00 0.00 0.00 90 1023.8
20260503182537 48 223 2.6 7.8 0.00 0.00 0.00 88 1023.7
20260503182527 54 172 4.3 7.0 0.00 0.00 0.00 76 1021.2
20260503181533 49 168 1.7 4.3 0.00 0.00 0.00 86 1023.8
20260503181523 55 173 5.2 7.8 0.00 0.00 0.00 75 1021.1
20260503180528 49 135 0.9 2.6 0.00 0.00 0.00 85 1023.7
20260503180520 55 173 6.1 10.4 0.00 0.00 0.00 74 1021.1
20260503175524 50 222 1.7 4.3 0.00 0.00 0.00 82 1023.6
20260503175516 56 165 4.3 7.8 0.00 0.00 0.00 71 1021.0
20260503174533 58 168 3.5 5.2 0.00 0.00 0.00 66 1021.0
20260503174520 53 16 1.7 4.3 0.00 0.00 0.00 79 1023.6
20260503173529 58 160 2.6 3.5 0.00 0.00 0.00 65 1020.9
20260503173516 53 3 1.7 4.3 0.00 0.00 0.00 79 1023.5
20260503172532 52 353 1.7 7.0 0.00 0.00 0.00 80 1023.5
20260503172526 59 141 0.9 3.5 0.00 0.00 0.00 64 1020.8
20260503171547 59 157 0.9 2.6 0.00 0.00 0.00 62 1020.8
20260503171528 53 9 1.7 3.5 0.00 0.00 0.00 78 1023.5
20260503170538 60 191 1.7 1.7 0.00 0.00 0.00 61 1020.8
20260503170524 53 6 1.7 4.3 0.00 0.00 0.00 79 1023.5
20260503150553 56 160 4.3 9.6 0.00 0.00 0.00 71 1024.2
20260503150516 67 104 0.9 3.5 0.00 0.00 0.00 50 1021.6
20260503130613 64 172 1.7 5.2 0.00 0.00 0.00 53 1022.4
20260503130524 56 214 3.5 11.3 0.00 0.00 0.00 67 1024.8
20260503110534 58 249 2.6 6.1 0.00 0.00 0.00 68 1025.2
20260503110529 65 6 1.7 5.2 0.00 0.00 0.00 46 1022.4
20260503081545 57 130 1.7 6.1 0.00 0.00 0.00 60 1025.5
20260503081528 59 61 1.7 5.2 0.00 0.00 0.00 54 1023.3
20260503080524 59 54 0.9 2.6 0.00 0.00 0.00 54 1023.3
20260503080521 56 177 1.7 5.2 0.00 0.00 0.00 62 1025.6
20260503072530 58 116 0.9 2.6 0.00 0.00 0.00 52 1023.3
20260503072524 54 133 2.6 5.2 0.00 0.00 0.00 64 1025.5
20260503071527 57 343 0.0 1.7 0.00 0.00 0.00 54 1023.4
20260503071520 54 125 2.6 6.1 0.00 0.00 0.00 63 1025.5
20260503070523 56 58 0.9 2.6 0.00 0.00 0.00 53 1023.3
20260503070516 55 124 1.7 5.2 0.00 0.00 0.00 61 1025.4
20260503054535 52 119 1.7 3.5 0.00 0.00 0.00 61 1023.1
20260503054523 52 85 2.6 6.1 0.00 0.00 0.00 65 1024.9
20260503053531 52 147 2.6 5.2 0.00 0.00 0.00 60 1023.1
20260503053520 51 133 2.6 9.6 0.00 0.00 0.00 66 1024.9
20260503052527 53 97 2.6 4.3 0.00 0.00 0.00 60 1023.0
20260503052515 51 44 1.7 6.1 0.00 0.00 0.00 66 1024.9
20260503051531 51 80 2.6 5.2 0.00 0.00 0.00 65 1024.7
20260503051524 52 92 0.9 3.5 0.00 0.00 0.00 63 1023.1
20260503050540 51 87 0.9 3.5 0.00 0.00 0.00 64 1023.1
20260503050527 49 106 5.2 8.7 0.00 0.00 0.00 68 1024.5
20260503045523 47 131 3.5 6.1 0.00 0.00 0.00 74 1024.6
20260503045517 51 1 1.7 4.3 0.00 0.00 0.00 63 1023.1
20260503044539 45 139 2.6 5.2 0.00 0.00 0.00 78 1024.6
20260503044533 50 315 1.7 3.5 0.00 0.00 0.00 63 1023.0
20260503043555 45 148 1.7 6.1 0.00 0.00 0.00 79 1024.5
20260503043529 50 2 1.7 3.5 0.00 0.00 0.00 62 1023.0
20260503042531 44 177 3.5 7.8 0.00 0.00 0.00 81 1024.5
20260503042526 50 75 1.7 4.3 0.00 0.00 0.00 60 1022.8
20260503041526 44 141 2.6 5.2 0.00 0.00 0.00 77 1024.4
20260503041522 50 162 0.9 3.5 0.00 0.00 0.00 60 1022.8
20260503040543 44 135 2.6 7.0 0.00 0.00 0.00 77 1024.3
20260503040519 50 167 1.7 3.5 0.00 0.00 0.00 59 1022.8
20260503035535 50 192 1.7 3.5 0.00 0.00 0.00 59 1022.6
20260503035518 44 147 2.6 7.0 0.00 0.00 0.00 76 1024.4
20260503034534 46 141 3.5 7.8 0.00 0.00 0.00 75 1024.3
20260503034532 50 21 1.7 3.5 0.00 0.00 0.00 57 1022.5